Location: Unspecified
(0.0000°N, 0.0000°E)
Time: 09:30:43
(UTC+02:00)

IUS-9 SRM-1 - Visible Passes

Search period start: 01 September 2014 00:00
Search period end: 11 September 2014 00:00
Orbit: 245 x 20710 km, 26.5° (Epoch: 31 August)

Date Brightness Start Highest point End Pass type
(mag) Time Alt. Az. Time Alt. Az. Time Alt. Az.
01 Sep 9.0 00:00:00 40° SE 23:59:45 40° SE 01:10:05 10° ESE visible
01 Sep 5.7 05:57:30 10° WSW 07:43:24 87° SSE 07:50:57 10° ENE visible
01 Sep 8.6 20:27:08 10° WNW 20:58:29 77° SSW 01:25:20 10° ESE visible
02 Sep 5.6 06:35:58 10° WSW 07:56:14 85° NNW 08:03:12 10° ENE visible
02 Sep 8.7 20:39:46 10° WNW 21:14:59 74° SSW 01:40:03 10° ESE visible
03 Sep 5.4 07:05:20 10° WSW 08:08:44 77° NNW 08:15:13 10° NE visible
03 Sep 8.7 20:52:16 10° WNW 21:32:04 70° SSW 01:54:16 10° ESE visible
04 Sep 5.3 07:29:45 10° WSW 08:20:54 67° NW 08:27:00 10° NE visible
04 Sep 8.7 21:04:40 10° WNW 21:49:53 67° SSW 02:08:02 10° ESE visible
05 Sep 5.2 07:51:05 10° WSW 08:32:47 58° NW 08:38:33 10° NE visible
05 Sep 8.6 21:16:59 10° W 22:08:41 65° SSW 02:21:22 10° ESE visible
06 Sep 8.5 21:29:11 10° W 22:28:47 62° SSW 02:34:19 10° ESE visible
07 Sep 8.4 21:41:19 10° W 22:50:47 60° SSW 02:46:52 10° ESE visible
08 Sep 8.3 21:53:23 10° W 23:15:54 58° SSW 02:59:04 10° E visible
09 Sep 8.3 22:05:23 10° W 23:48:31 56° SSW 03:10:55 10° E visible
10 Sep 9.3 22:17:20 10° W 00:00:00 54° SSW 00:00:00 54° SSW visible
